OKEAN-O

Last updated on Sun Apr 12 2026 00:02:17 GMT+0000 (Coordinated Universal Time)

1 25860U 99039A 26101.43416882 .00000452 00000+0 66013-4 0 9997 2 25860 97.9377 160.9816 0001078 113.2365 246.8960 14.80389067439235
UTC large
Height (km)
Speed (km/s)
/
Latitude / Longitude
Inclination (degrees)
Orbital Period (minutes)
Azimuth
Elevation
Range (km)
Doppler Factor

Next 0 passes for location: London (51.5072 / 0.1276)

Sorry there are no passes over London.
OKEAN-O